STARLINK-11696, 64324

Orbit data source: Space-Track

STARLINK-11696, 64324 is a payload satellite owned by SpaceX/Seattle (US) in LEO that was launched on Tue, 10 Jun 2025 UTC via an FALCON 9 launch vehicle from the Air Force Eastern Test Range (AFETR). Payload-class satellites include a variety of spacecraft equipped with specific instruments for various scientific and technological missions. These include communications satellites like Starlink; space stations such as the ISS; scientific satellites like the Hubble; Earth observation satellites from companies like Planet Labs, Umbra, and HawkEye 360; GPS; miniature CubeSats for education and research; and military/defense satellites.

Loading next visibility...
Identifier
64324, 2025-124H
Orbit
LEO
Country
Flag of USUS
Related business
Manufacturer
SpaceX/Seattle
Mission
Operational Commercial Communications
Bus & Motor
STARLINK V2MD, Unknown motor
Mass
960 kg wet, ~910 kg dry
Launch date (UTC)
2025-06-10 (1 year ago)
Launch vehicle
FALCON 9
Launch site
Air Force Eastern Test Range (AFETR)
Object type
Payload
Rocket body
Debris
Shape & HBR
Box + 2 Pan, 18.1 m
Radar Cross Section
36.964 m², Large (>1 m²)

Expand to show TLE details & history
Last TLE update: 1 day ago

TLE from 1 day ago
0 STARLINK-11696
1 64324U 25124H   26170.59252879  .00134477  00000-0  10331-2 0  9992
2 64324  43.0005 134.7464 0000813 275.5796  84.4979 15.70876591 58862
Epoch: 2026-06-19T14:13Z
TLE epoch observation values (Epoch: 2026-06-19T14:13:14.487Z)
Latitude
-0.00001°
Longitude
13.61674°
Altitude
356.109 km
Speed
7.697 km/s
True Right ascension
08h 58m 59s
True Declination
0° 00' 00"
Sunlit
Object was in daylight at epoch
Visualization orbit readout
Latitude
Unknown
Longitude
Unknown
Altitude
Unknown
Speed
Unknown
Apparent Right ascension
Unknown
Apparent Declination
Unknown
Sunlit
N/A
Visualization observer readout
Local Sidereal Time
10:19:47
Azimuth
Unknown
Elevation
Unknown
Doppler factor
Unknown
Orbital elements
Apogee altitude
358.92 km
Perigee altitude
357.824 km
Semi-major axis
6,736.509 km
Eccentricity
0.00008
Inclination
43.0005°
RAAN
134.7464°
Arg. of periapsis
275.5796°
True anomaly
84.50717°
Mean anomaly
84.4979°
Eccentric anomaly
84.50254°
Mean motion
3.92546 °/min
Orbital period
91.71 mins
BSTAR
0.0010331
Loading maneuver chart data...
Computing Atmospheric mass density...
Loading historical data...
Loading historical data...
Loading historical data...
Loading historical data...
Loading historical data...
Loading historical data...
Loading historical data...

Documentation

Showing up to 5 results
|